EJU6003 EPWA-EPKK

Flight info

Callsign EJU6003
Flight time 0h 26m
Altitude 24000
Route EVINA DCT KUKAM
Aircraft A320/M-SDE3FGHIRWY/LB1

Departure

Time 2026-05-06 22:32
Airport Warsaw Chopin Airport (EPWA)

Arrival

Time 2026-05-06 22:58
Airport Kraków John Paul II International Airport (EPKK)
Time Latitude Longitude Altitude Speed Heading
2026-05-06 22:02 52.17001 20.97146 334 ft 0 kts 70°
2026-05-06 22:21 52.17000 20.97144 339 ft 2 kts 70°
2026-05-06 22:21 52.16991 20.97105 333 ft 4 kts 70°
2026-05-06 22:21 52.16984 20.97072 335 ft 3 kts 71°
2026-05-06 22:22 52.16976 20.97038 333 ft 4 kts 53°
2026-05-06 22:22 52.16958 20.97019 334 ft 4 kts 348°
2026-05-06 22:22 52.16935 20.97034 336 ft 4 kts 332°
2026-05-06 22:22 52.16927 20.97042 335 ft 0 kts 332°
2026-05-06 22:25 52.16928 20.97041 335 ft 2 kts 332°
2026-05-06 22:26 52.16960 20.97012 337 ft 8 kts 332°
2026-05-06 22:26 52.17004 20.96974 336 ft 7 kts 332°
2026-05-06 22:26 52.17042 20.96942 336 ft 6 kts 332°
2026-05-06 22:26 52.17073 20.96914 338 ft 5 kts 332°
2026-05-06 22:27 52.17100 20.96891 337 ft 4 kts 332°
2026-05-06 22:27 52.17132 20.96863 336 ft 8 kts 332°
2026-05-06 22:27 52.17201 20.96802 337 ft 14 kts 332°
2026-05-06 22:27 52.17297 20.96718 336 ft 16 kts 332°
2026-05-06 22:28 52.17387 20.96639 338 ft 14 kts 332°
2026-05-06 22:28 52.17462 20.96558 336 ft 12 kts 303°
2026-05-06 22:28 52.17448 20.96440 333 ft 10 kts 243°
2026-05-06 22:28 52.17445 20.96353 339 ft 7 kts 309°
2026-05-06 22:29 52.17484 20.96316 338 ft 6 kts 332°
2026-05-06 22:29 52.17517 20.96287 337 ft 5 kts 332°
2026-05-06 22:29 52.17560 20.96247 337 ft 8 kts 322°
2026-05-06 22:29 52.17582 20.96176 338 ft 7 kts 278°
2026-05-06 22:30 52.17575 20.96110 339 ft 6 kts 248°
2026-05-06 22:30 52.17522 20.96045 337 ft 13 kts 208°
2026-05-06 22:30 52.17436 20.95983 336 ft 15 kts 189°
2026-05-06 22:30 52.17371 20.96015 336 ft 0 kts 152°
2026-05-06 22:31 52.17347 20.96035 334 ft 15 kts 152°
2026-05-06 22:31 52.17052 20.96293 333 ft 84 kts 152°
2026-05-06 22:31 52.16356 20.96904 337 ft 141 kts 152°
2026-05-06 22:32 52.15376 20.97745 577 ft 168 kts 152°
2026-05-06 22:32 52.14334 20.98637 1262 ft 169 kts 154°
2026-05-06 22:32 52.13281 20.99544 1900 ft 177 kts 155°
2026-05-06 22:32 52.12135 21.00458 2408 ft 189 kts 161°
2026-05-06 22:33 52.10846 21.01121 2893 ft 200 kts 173°
2026-05-06 22:33 52.09408 21.01281 3306 ft 219 kts 185°
2026-05-06 22:33 52.07832 21.00883 3769 ft 241 kts 196°
2026-05-06 22:33 52.06204 20.99919 4395 ft 256 kts 205°
2026-05-06 22:34 52.04584 20.98640 5302 ft 259 kts 207°
2026-05-06 22:34 52.02986 20.97337 6387 ft 255 kts 207°
2026-05-06 22:34 52.01390 20.96089 7366 ft 255 kts 206°
2026-05-06 22:34 51.99777 20.94870 8293 ft 257 kts 205°
2026-05-06 22:35 51.98146 20.93645 9195 ft 260 kts 205°
2026-05-06 22:35 51.96495 20.92397 10056 ft 265 kts 206°
2026-05-06 22:35 51.94756 20.91075 10362 ft 288 kts 206°
2026-05-06 22:35 51.92870 20.89633 10607 ft 312 kts 206°
2026-05-06 22:36 51.90831 20.88069 10778 ft 335 kts 206°
2026-05-06 22:36 51.88661 20.86409 10995 ft 354 kts 206°
2026-05-06 22:36 51.86406 20.84693 11561 ft 361 kts 205°
2026-05-06 22:36 51.84144 20.82977 12206 ft 366 kts 206°
2026-05-06 22:37 51.81830 20.81219 12874 ft 369 kts 206°
2026-05-06 22:37 51.79496 20.79447 13541 ft 372 kts 206°
2026-05-06 22:37 51.77143 20.77664 14115 ft 375 kts 206°
2026-05-06 22:37 51.74768 20.75865 14693 ft 378 kts 206°
2026-05-06 22:38 51.72377 20.74051 15259 ft 381 kts 206°
2026-05-06 22:38 51.69964 20.72219 15806 ft 385 kts 206°
2026-05-06 22:38 51.67502 20.70352 16351 ft 388 kts 206°
2026-05-06 22:38 51.65050 20.68496 16892 ft 390 kts 206°
2026-05-06 22:39 51.62583 20.66634 17428 ft 393 kts 206°
2026-05-06 22:39 51.60053 20.64906 17936 ft 398 kts 199°
2026-05-06 22:39 51.57358 20.63793 18386 ft 402 kts 196°
2026-05-06 22:39 51.54626 20.62726 18852 ft 404 kts 196°
2026-05-06 22:40 51.51885 20.61671 19309 ft 407 kts 196°
2026-05-06 22:40 51.49154 20.60627 19733 ft 409 kts 196°
2026-05-06 22:40 51.46380 20.59568 20142 ft 412 kts 196°
2026-05-06 22:40 51.43546 20.58479 20565 ft 414 kts 196°
2026-05-06 22:41 51.37954 20.56317 21345 ft 419 kts 196°
2026-05-06 22:41 51.35113 20.55227 21749 ft 421 kts 196°
2026-05-06 22:41 51.32259 20.54133 22155 ft 423 kts 196°
2026-05-06 22:42 51.29396 20.53030 22553 ft 425 kts 196°
2026-05-06 22:42 51.26515 20.51920 22934 ft 427 kts 196°
2026-05-06 22:42 51.23615 20.50808 23302 ft 429 kts 196°
2026-05-06 22:42 51.20703 20.49696 23611 ft 431 kts 196°
2026-05-06 22:43 51.17776 20.48581 23787 ft 433 kts 196°
2026-05-06 22:43 51.14825 20.47457 23819 ft 440 kts 196°
2026-05-06 22:43 51.11833 20.46317 23819 ft 444 kts 196°
2026-05-06 22:43 51.08831 20.45172 23820 ft 445 kts 196°
2026-05-06 22:44 51.05848 20.44036 23818 ft 437 kts 196°
2026-05-06 22:44 51.02901 20.42918 23822 ft 434 kts 196°
2026-05-06 22:44 50.99968 20.41808 23822 ft 433 kts 196°
2026-05-06 22:44 50.97041 20.40701 23822 ft 433 kts 196°
2026-05-06 22:45 50.94105 20.39590 23735 ft 434 kts 196°
2026-05-06 22:45 50.91172 20.38479 22606 ft 437 kts 196°
2026-05-06 22:45 50.88205 20.37354 21467 ft 438 kts 195°
2026-05-06 22:45 50.85261 20.36243 20575 ft 433 kts 195°
2026-05-06 22:46 50.82343 20.35145 19751 ft 428 kts 195°
2026-05-06 22:46 50.79462 20.34065 18980 ft 424 kts 195°
2026-05-06 22:46 50.76607 20.32999 18233 ft 419 kts 195°
2026-05-06 22:46 50.73782 20.31944 17421 ft 415 kts 195°
2026-05-06 22:47 50.70986 20.30901 16633 ft 410 kts 195°
2026-05-06 22:47 50.68230 20.29874 15897 ft 405 kts 195°
2026-05-06 22:47 50.65499 20.28855 15195 ft 400 kts 195°
2026-05-06 22:47 50.62810 20.27854 14511 ft 395 kts 194°
2026-05-06 22:48 50.60165 20.26871 14050 ft 384 kts 194°
2026-05-06 22:48 50.57623 20.25925 13936 ft 366 kts 194°
2026-05-06 22:48 50.55199 20.25024 13800 ft 350 kts 194°
2026-05-06 22:48 50.52876 20.24164 13697 ft 335 kts 194°
2026-05-06 22:49 50.50658 20.23345 13576 ft 321 kts 195°
2026-05-06 22:49 50.48526 20.22556 13440 ft 308 kts 195°
2026-05-06 22:49 50.46481 20.21796 13308 ft 296 kts 195°
2026-05-06 22:49 50.44511 20.21063 13178 ft 286 kts 195°
2026-05-06 22:50 50.42600 20.20358 12976 ft 279 kts 195°
2026-05-06 22:50 50.41355 20.19900 12737 ft 277 kts 195°
2026-05-06 22:50 50.38853 20.18978 12268 ft 274 kts 195°
2026-05-06 22:50 50.37626 20.18524 12022 ft 273 kts 195°
2026-05-06 22:51 50.35779 20.17841 11623 ft 273 kts 195°
2026-05-06 22:51 50.33925 20.17159 11109 ft 277 kts 195°
2026-05-06 22:51 50.31379 20.16220 10142 ft 291 kts 195°
2026-05-06 22:51 50.30030 20.15722 9631 ft 298 kts 195°
2026-05-06 22:52 50.27984 20.14968 8817 ft 306 kts 195°
2026-05-06 22:52 50.25922 20.14210 8281 ft 298 kts 195°
2026-05-06 22:52 50.23962 20.13496 7870 ft 281 kts 195°
2026-05-06 22:52 50.22109 20.12825 7479 ft 265 kts 195°
2026-05-06 22:53 50.20355 20.12190 7096 ft 252 kts 196°
2026-05-06 22:53 50.18678 20.11581 6586 ft 245 kts 196°
2026-05-06 22:53 50.17064 20.10990 6107 ft 238 kts 196°
2026-05-06 22:53 50.15456 20.10402 5595 ft 232 kts 196°
2026-05-06 22:54 50.13909 20.09835 5099 ft 225 kts 196°
2026-05-06 22:54 50.12515 20.08961 4599 ft 216 kts 220°
2026-05-06 22:54 50.11713 20.07042 4094 ft 216 kts 252°
2026-05-06 22:54 50.11452 20.04717 3612 ft 214 kts 254°
2026-05-06 22:55 50.11154 20.02473 3135 ft 215 kts 254°
2026-05-06 22:55 50.10841 20.00271 2996 ft 199 kts 253°
2026-05-06 22:55 50.10561 19.98281 3013 ft 176 kts 252°
2026-05-06 22:55 50.10311 19.96499 3008 ft 163 kts 252°
2026-05-06 22:56 50.10072 19.94810 3012 ft 157 kts 252°
2026-05-06 22:56 50.09843 19.93182 2832 ft 153 kts 252°
2026-05-06 22:56 50.09615 19.91562 2534 ft 154 kts 252°
2026-05-06 22:56 50.09358 19.89932 2207 ft 155 kts 250°
2026-05-06 22:57 50.09086 19.88298 1859 ft 156 kts 256°
2026-05-06 22:57 50.08875 19.86642 1652 ft 156 kts 256°
2026-05-06 22:57 50.08663 19.85013 1471 ft 153 kts 257°
2026-05-06 22:57 50.08432 19.83406 1286 ft 152 kts 258°
2026-05-06 22:58 50.08225 19.81791 1096 ft 152 kts 259°
2026-05-06 22:58 50.08003 19.80168 907 ft 154 kts 259°
2026-05-06 22:58 50.07789 19.78565 801 ft 140 kts 257°
2026-05-06 22:58 50.07648 19.77568 799 ft 48 kts 257°
2026-05-06 22:59 50.07602 19.77275 801 ft 9 kts 259°
2026-05-06 22:59 50.07592 19.77192 802 ft 6 kts 258°
2026-05-06 22:59 50.07583 19.77133 803 ft 5 kts 257°
2026-05-06 22:59 50.07570 19.77037 802 ft 11 kts 258°
2026-05-06 23:00 50.07554 19.76923 802 ft 10 kts 257°
2026-05-06 23:00 50.07515 19.76851 802 ft 8 kts 199°
2026-05-06 23:00 50.07454 19.76854 801 ft 9 kts 171°
2026-05-06 23:00 50.07390 19.76875 800 ft 9 kts 167°
2026-05-06 23:01 50.07334 19.76897 800 ft 8 kts 161°
2026-05-06 23:01 50.07308 19.76955 800 ft 6 kts 96°
2026-05-06 23:01 50.07319 19.77048 800 ft 12 kts 77°
2026-05-06 23:01 50.07343 19.77216 800 ft 18 kts 77°
2026-05-06 23:02 50.07371 19.77416 800 ft 20 kts 78°
2026-05-06 23:02 50.07403 19.77638 800 ft 22 kts 78°
2026-05-06 23:02 50.07436 19.77878 800 ft 23 kts 78°
2026-05-06 23:02 50.07472 19.78134 800 ft 25 kts 78°
2026-05-06 23:03 50.07509 19.78403 800 ft 26 kts 77°
2026-05-06 23:03 50.07547 19.78682 800 ft 27 kts 77°
2026-05-06 23:03 50.07586 19.78968 800 ft 27 kts 78°
2026-05-06 23:03 50.07627 19.79256 800 ft 28 kts 77°
2026-05-06 23:04 50.07661 19.79504 800 ft 21 kts 77°
2026-05-06 23:04 50.07691 19.79717 800 ft 18 kts 78°
2026-05-06 23:04 50.07679 19.79866 800 ft 14 kts 146°
2026-05-06 23:04 50.07590 19.79906 800 ft 13 kts 167°
2026-05-06 23:05 50.07510 19.79934 800 ft 11 kts 168°
2026-05-06 23:05 50.07439 19.79957 800 ft 10 kts 168°
2026-05-06 23:05 50.07400 19.80019 800 ft 8 kts 98°
2026-05-06 23:05 50.07407 19.80093 800 ft 6 kts 76°
2026-05-06 23:06 50.07412 19.80166 800 ft 9 kts 105°
2026-05-06 23:06 50.07360 19.80199 800 ft 8 kts 167°
2026-05-06 23:06 50.07343 19.80205 800 ft 0 kts 168°